Weather in Soygino

Russia / Chuvash Republic     54°47′12″N   47°04′34″E
temp.,
°C
wind,
m/s
gust,
m/s
humid.,
%
clouds,
%
prec.,
mm/h
press.,
hPa
HPBL,
m
13 april, tue
tue1300:00+8ese3898100 0.0 1035240
03:00+8ese2698100 0.0 1035192
06:00+8sse2598100 0.0 1034180
09:00+12sse357566 0.0 1034265
12:00+16sse474772 0.0 1033755
15:00+17sse46416 0.0 1032968
18:00+13se26585 0.0 1031111
21:00+9se226417 0.0 103122
14 april, wed
wed1400:00+8sse22655 0.0 103111
03:00+6se22665 0.0 103011
06:00+6se22685 0.0 102917
09:00+13se36515 0.0 1028328
12:00+17se46496 0.0 1027810
15:00+18sse46510 0.0 10251058
18:00+15se36672 0.0 1024169
21:00+11se26845 0.0 1024108
15 april, thu
thu1500:00+10se22890 0.0 102223
03:00+8se11890 0.0 102210
06:00+8se22875 0.0 102226
09:00+14s24626 0.0 1021392
12:00+17s23448 0.0 10201289
15:00+19s123754 0.0 10191355
18:00+16e225297 0.0 101813
21:00+12e2264100 0.0 101916
16 april, fri
fri1600:00+11e2274100 0.0 101819
03:00+9ene2278100 0.0 101919
06:00+9ene267880 0.0 1019131
09:00+14ene466082 0.0 1020512
12:00+16ene4556100 0.0 1020856
15:00+16ene4558100 0.0 10211052
18:00+14ene4867100 0.0 1021639
21:00+10ene41177100 0.0 1023512
17 april, sat
sat1700:00+8ene4107888 0.0 1024379
03:00+6ene41167100 0.0 1025365
06:00+5ene4116260 0.0 1026404
09:00+9e574353 0.0 1026745
12:00+12ene463412 0.0 10261207
15:00+12ene44335 0.0 10261452
18:00+10ne25465 0.0 1026145
21:00+6ne22610 0.0 102623